Showing default

SDX02, 62460

Orbit data source: Space-Track

SDX02, 62460 is a payload satellite owned by ISRO (IN) in LEO that was launched on Mon, 30 Dec 2024 UTC via a PSLV launch vehicle from the Sirharikota (SRI). Payload-class satellites include a variety of spacecraft equipped with specific instruments for various scientific and technological missions. These include communications satellites like Starlink; space stations such as the ISS; scientific satellites like the Hubble; Earth observation satellites from companies like Planet Labs, Umbra, and HawkEye 360; GPS; miniature CubeSats for education and research; and military/defense satellites.

Loading next visibility...
Identifier
62460, 2024-253B
Orbit
LEO
Country
Flag of ININ / IND
Related business
Manufacturer
ISRO
Mission
Operational Civil Technology
Bus & Motor
SPADEX, Unknown motor
Mass
220 kg wet, ~180 kg dry
Launch date (UTC)
2024-12-30 (1 year ago)
Launch vehicle
PSLV
Launch site
Sirharikota (SRI)
Object type
Payload
Rocket body
Debris
Shape & HBR
Box + 2 Pan, 1.3 m
Radar Cross Section
0.901 m², Large (>1 m²)

Expand to show TLE details & history
Last TLE update: 18 hours ago

TLE from 18 hours ago
0 SDX02
1 62460U 24253B   25348.84703656  .00019035  00000-0  34498-3 0  9994
2 62460  54.9949 123.3925 0007474  98.8219 261.3661 15.49687145 53771
Epoch: 2025-12-14T20:19Z
TLE epoch observation values (Epoch: 2025-12-14T20:19:43.958Z)
Latitude
-0°
Longitude
94.70525°
Altitude
419.511 km
Speed
7.66 km/s
True Right ascension
08h 13m 34s
True Declination
0° 00' 00"
Sunlit
Object was in full shadow at epoch
Visualization orbit readout
Latitude
Unknown
Longitude
Unknown
Altitude
Unknown
Speed
Unknown
Apparent Right ascension
Unknown
Apparent Declination
Unknown
Sunlit
N/A
Visualization observer readout
Local Sidereal Time
12:46:01
Azimuth
Unknown
Elevation
Unknown
Doppler factor
Unknown
Orbital elements
Apogee altitude
422.682 km
Perigee altitude
412.524 km
Semi-major axis
6,795.74 km
Eccentricity
0.00075
Inclination
54.9949°
RAAN
123.3925°
Arg. of periapsis
98.8219°
True anomaly
261.28144°
Mean anomaly
261.3661°
Eccentric anomaly
261.32377°
Mean motion
3.87425 °/min
Orbital period
92.92 mins
BSTAR
0.00034498
Loading maneuver chart data...
Computing Atmospheric mass density...
Loading historical data...
Loading historical data...
Loading historical data...
Loading historical data...
Loading historical data...
Loading historical data...
Loading historical data...
Other satellites on launch #253 in the year 2024 (2024-12-30 UTC)

Documentation

Showing up to 5 results
|